ICESAT-2

Last updated on Fri Jul 10 2026 00:02:50 GMT+0000 (Coordinated Universal Time)

1 43613U 18070A 26190.28708860 .00007013 00000+0 25453-3 0 9992 2 43613 92.0084 296.9510 0005867 77.9104 282.2803 15.28282480435836
UTC large
Height (km)
Speed (km/s)
/
Latitude / Longitude
Inclination (degrees)
Orbital Period (minutes)
Azimuth
Elevation
Range (km)
Doppler Factor

Next 0 passes for location: London (51.5072 / 0.1276)

No passes found over London.
ICESAT-2